Skip Page Navigation
NASA JPL Caltech
NASA Logo - Jet Propulsion Laboratory + View the NASA Portal
+ Center for Near-Earth Object Studies
JPL Home Earth Solar System Stars & Galaxies Technology
JPL Solar System Dynamics
BODIES ORBITS EPHEMERIDES TOOLS PHYSICAL DATA DISCOVERY FAQ SITE MAP
IMPORTANT: The SSD Announcement email list is now available. Major changes are coming in the near future, including possible hostname and/or URL changes. To be notified of such changes, subscribe to this email list.

Please visit this page for more details.


JPL Small-Body Database Browser
Search: [ help ]  
214840 (2006 VB144)
Classification: Main-belt Asteroid          SPK-ID: 2214840
Ephemeris | Orbit Diagram | Orbital Elements | Mission Design | Physical Parameters | Discovery Circumstances | Close-Approach Data ]

[ show orbit diagram ]
Orbital Elements at Epoch 2458600.5 (2019-Apr-27.0) TDB
Reference: JPL 14 (heliocentric ecliptic J2000)
 Element Value Uncertainty (1-sigma)   Units 
e .1716326561488428 9.4892e-08  
a 3.111668426381164 3.4457e-08 au
q 2.577604509306875 2.9248e-07 au
i 24.29793958535595 7.721e-06 deg
node 28.85515092495142 1.5955e-05 deg
peri 8.14326697631002 2.9393e-05 deg
M 104.9965886781089 1.9601e-05 deg
tp 2458015.762313684116
(2017-Sep-19.26231368)
0.00010865 TDB
period 2004.880060618648
5.49
3.3302e-05
9.118e-08
d
yr
n .179561863610392 2.9826e-09 deg/d
Q 3.645732343455454 4.0371e-08 au
  Orbit Determination Parameters
   # obs. used (total)      281  
   data-arc span      6770 days (18.54 yr)  
   first obs. used      2000-09-20  
   last obs. used      2019-04-04  
   planetary ephem.      DE431  
   SB-pert. ephem.      SB431-N16  
   condition code      0  
   norm. resid. RMS      .61037  
   source      ORB  
   producer      Otto Matic  
   solution date      2019-Jul-14 07:41:54  

Additional Information
 Earth MOID = 1.58496 au 
 Jupiter MOID = 1.81207 au 
 T_jup = 3.061 
[ show covariance matrix ]

Ephemeris | Orbit Diagram | Orbital Elements | Mission Design | Physical Parameters | Discovery Circumstances | Close-Approach Data ]

Physical Parameter Table
Parameter Symbol Value Units Sigma Reference Notes
absolute magnitude H 15.0   n/a MPO433405  

214840 (2006 VB144)          Discovered 2006-Nov-15 by CSS at Catalina
Reference: 20090509/Numbers.arcLast Updated: 2009-05-11

[ show close-approach data ]
Ephemeris | Orbit Diagram | Orbital Elements | Mission Design | Physical Parameters | Discovery Circumstances | Close-Approach Data ]
ABOUT SSD CREDITS/AWARDS PRIVACY/COPYRIGHT GLOSSARY LINKS
FirstGov 2019-Dec-07 20:04 UT
(server date/time)  
NASA Home Page
Site Manager:   Ryan S. Park
Webmaster  Alan B. Chamberlin